TimeCST,TemperatureF,Dew PointF,Humidity,Sea Level PressureIn,VisibilityMPH,Wind Direction,Wind SpeedMPH,Gust SpeedMPH,PrecipitationIn,Events,Conditions,WindDirDegrees,DateUTC
12:28 AM,21.2,17.6,86,29.93,9.0,SW,6.9,-,0.00,,Mostly Cloudy,220,2012-12-11 06:28:00
12:49 AM,21.2,17.6,86,29.94,9.0,WSW,9.2,-,0.00,,Mostly Cloudy,250,2012-12-11 06:49:00
12:56 AM,21.9,18.0,85,29.96,9.0,West,8.1,-,0.00,,Mostly Cloudy,260,2012-12-11 06:56:00
1:56 AM,19.9,16.0,85,29.96,9.0,West,5.8,-,N/A,,Overcast,260,2012-12-11 07:56:00
2:15 AM,19.4,15.8,86,29.94,9.0,WSW,4.6,-,N/A,,Overcast,250,2012-12-11 08:15:00
2:56 AM,19.0,15.1,85,29.96,7.0,Calm,Calm,-,N/A,,Mostly Cloudy,0,2012-12-11 08:56:00
3:10 AM,17.6,14.0,86,29.93,7.0,South,3.5,-,N/A,,Scattered Clouds,180,2012-12-11 09:10:00
3:56 AM,18.0,14.0,84,29.95,4.0,Calm,Calm,-,N/A,,Clear,0,2012-12-11 09:56:00
4:56 AM,14.0,9.0,80,29.95,5.0,Calm,Calm,-,N/A,,Haze,0,2012-12-11 10:56:00
5:56 AM,14.0,10.9,88,29.94,4.0,ENE,3.5,-,N/A,,Partly Cloudy,70,2012-12-11 11:56:00
6:56 AM,18.0,14.0,84,29.93,6.0,ESE,5.8,-,N/A,,Overcast,120,2012-12-11 12:56:00
7:56 AM,19.9,14.0,78,29.93,10.0,South,3.5,-,N/A,,Overcast,190,2012-12-11 13:56:00
8:56 AM,21.9,12.9,68,29.93,10.0,SSW,9.2,18.4,N/A,,Overcast,200,2012-12-11 14:56:00
9:56 AM,21.9,14.0,72,29.95,10.0,SW,8.1,-,N/A,,Overcast,230,2012-12-11 15:56:00
11:56 AM,26.1,18.0,71,29.94,10.0,WSW,6.9,-,N/A,,Mostly Cloudy,240,2012-12-11 17:56:00
12:07 PM,26.6,17.6,69,29.92,10.0,WSW,6.9,-,N/A,,Mostly Cloudy,240,2012-12-11 18:07:00
12:56 PM,27.0,19.0,72,29.94,10.0,WSW,8.1,-,N/A,,Mostly Cloudy,240,2012-12-11 18:56:00
1:28 PM,28.4,19.4,69,29.92,10.0,SW,9.2,-,N/A,,Scattered Clouds,230,2012-12-11 19:28:00
1:56 PM,28.0,19.0,69,29.94,10.0,SW,10.4,-,N/A,,Overcast,230,2012-12-11 19:56:00
2:56 PM,28.0,19.0,69,29.96,10.0,SW,8.1,-,N/A,,Overcast,230,2012-12-11 20:56:00
3:56 PM,28.0,19.9,72,29.97,10.0,WSW,5.8,-,0.00,,Overcast,250,2012-12-11 21:56:00
4:56 PM,28.0,21.0,75,29.99,6.0,SW,3.5,-,0.00,Snow,Light Snow,220,2012-12-11 22:56:00
5:56 PM,28.0,21.9,78,29.99,10.0,Calm,Calm,-,0.00,,Overcast,0,2012-12-11 23:56:00
6:56 PM,28.9,21.9,75,30.00,10.0,Calm,Calm,-,N/A,,Overcast,0,2012-12-12 00:56:00
7:56 PM,28.9,21.9,75,30.02,9.0,Calm,Calm,-,N/A,,Overcast,0,2012-12-12 01:56:00
8:21 PM,28.4,23.0,80,30.00,10.0,South,3.5,-,N/A,,Overcast,190,2012-12-12 02:21:00
8:56 PM,28.0,23.0,81,30.03,9.0,Calm,Calm,-,N/A,,Overcast,0,2012-12-12 02:56:00
9:56 PM,28.0,23.0,81,30.06,9.0,West,3.5,-,N/A,,Overcast,280,2012-12-12 03:56:00
10:56 PM,28.9,24.1,82,30.07,8.0,Calm,Calm,-,N/A,,Overcast,0,2012-12-12 04:56:00
11:56 PM,30.0,23.0,75,30.09,9.0,Calm,Calm,-,N/A,,Overcast,0,2012-12-12 05:56:00